Time,TemperatureF,DewpointF,PressureIn,WindDirection,WindDirectionDegrees,WindSpeedMPH,WindSpeedGustMPH,Humidity,HourlyPrecipIn,Conditions,Clouds,dailyrainin,SoftwareType,DateUTC
2013-04-14 00:02:00,70.0,37.1,29.52,SW,234,21.0,22.0,30,0.00,,,0.00,Wunderground v.1.15,2013-04-14 07:02:00,
2013-04-14 00:08:00,69.8,36.9,29.51,SW,228,19.0,23.0,30,0.00,,,0.00,Wunderground v.1.15,2013-04-14 07:08:00,
2013-04-14 00:14:00,69.7,36.9,29.52,SW,221,19.0,19.0,30,0.00,,,0.00,Wunderground v.1.15,2013-04-14 07:14:00,
2013-04-14 00:20:00,69.6,37.6,29.52,SW,221,18.0,18.0,31,0.00,,,0.00,Wunderground v.1.15,2013-04-14 07:20:00,
2013-04-14 00:26:00,69.4,37.4,29.52,SSW,211,16.0,18.0,31,0.00,,,0.00,Wunderground v.1.15,2013-04-14 07:26:00,
2013-04-14 00:32:00,69.2,37.3,29.52,SSW,202,15.0,18.0,31,0.00,,,0.00,Wunderground v.1.15,2013-04-14 07:32:00,
2013-04-14 00:38:00,68.9,37.0,29.52,South,171,15.0,19.0,31,0.00,,,0.00,Wunderground v.1.15,2013-04-14 07:38:00,
2013-04-14 00:44:00,68.9,37.0,29.52,SW,218,16.0,18.0,31,0.00,,,0.00,Wunderground v.1.15,2013-04-14 07:44:00,
2013-04-14 00:50:00,68.9,37.0,29.51,SSW,199,16.0,16.0,31,0.00,,,0.00,Wunderground v.1.15,2013-04-14 07:50:00,
2013-04-14 00:58:00,68.7,36.8,29.51,SSW,194,16.0,16.0,31,0.00,,,0.00,Wunderground v.1.15,2013-04-14 07:58:00,
2013-04-14 01:04:00,68.7,37.6,29.52,SSW,204,17.0,18.0,32,0.00,,,0.00,Wunderground v.1.15,2013-04-14 08:04:00,
2013-04-14 01:10:00,68.6,37.5,29.51,SSW,209,16.0,18.0,32,0.00,,,0.00,Wunderground v.1.15,2013-04-14 08:10:00,
2013-04-14 01:16:00,68.3,37.3,29.51,SSW,209,15.0,18.0,32,0.00,,,0.00,Wunderground v.1.15,2013-04-14 08:16:00,
2013-04-14 01:22:00,68.2,37.2,29.52,SSW,207,14.0,15.0,32,0.00,,,0.00,Wunderground v.1.15,2013-04-14 08:22:00,
2013-04-14 01:28:00,68.0,37.0,29.52,SW,214,14.0,15.0,32,0.00,,,0.00,Wunderground v.1.15,2013-04-14 08:28:00,
2013-04-14 01:34:00,67.9,37.7,29.51,SSW,212,15.0,18.0,33,0.00,,,0.00,Wunderground v.1.15,2013-04-14 08:34:00,
2013-04-14 01:40:00,68.0,37.0,29.51,SW,220,15.0,17.0,32,0.00,,,0.00,Wunderground v.1.15,2013-04-14 08:40:00,
2013-04-14 01:48:00,68.4,37.4,29.51,SW,228,17.0,22.0,32,0.00,,,0.00,Wunderground v.1.15,2013-04-14 08:48:00,
2013-04-14 01:53:00,68.6,37.5,29.51,SW,219,18.0,18.0,32,0.00,,,0.00,Wunderground v.1.15,2013-04-14 08:53:00,
2013-04-14 01:58:00,68.7,37.6,29.50,SSW,207,17.0,23.0,32,0.00,,,0.00,Wunderground v.1.15,2013-04-14 08:58:00,
2013-04-14 02:04:00,68.9,37.0,29.50,SW,221,17.0,17.0,31,0.00,,,0.00,Wunderground v.1.15,2013-04-14 09:04:00,
2013-04-14 02:10:00,68.8,36.9,29.50,SW,234,17.0,17.0,31,0.00,,,0.00,Wunderground v.1.15,2013-04-14 09:10:00,
2013-04-14 02:16:00,68.8,36.9,29.50,SW,232,17.0,21.0,31,0.00,,,0.00,Wunderground v.1.15,2013-04-14 09:16:00,
2013-04-14 02:22:00,68.7,36.8,29.50,SW,219,17.0,23.0,31,0.00,,,0.00,Wunderground v.1.15,2013-04-14 09:22:00,
2013-04-14 02:28:00,68.5,36.7,29.49,SW,225,18.0,23.0,31,0.00,,,0.00,Wunderground v.1.15,2013-04-14 09:28:00,
2013-04-14 02:34:00,68.3,36.5,29.50,SW,216,19.0,21.0,31,0.00,,,0.00,Wunderground v.1.15,2013-04-14 09:34:00,
2013-04-14 02:40:00,68.1,36.3,29.50,SW,236,18.0,18.0,31,0.00,,,0.00,Wunderground v.1.15,2013-04-14 09:40:00,
2013-04-14 02:46:00,68.0,36.2,29.50,SSW,211,17.0,18.0,31,0.00,,,0.00,Wunderground v.1.15,2013-04-14 09:46:00,
2013-04-14 02:52:00,67.9,36.1,29.50,SW,223,17.0,21.0,31,0.00,,,0.00,Wunderground v.1.15,2013-04-14 09:52:00,
2013-04-14 02:58:00,67.8,36.0,29.49,SW,216,17.0,21.0,31,0.00,,,0.00,Wunderground v.1.15,2013-04-14 09:58:00,
2013-04-14 03:04:00,67.6,35.9,29.49,SW,219,16.0,17.0,31,0.00,,,0.00,Wunderground v.1.15,2013-04-14 10:04:00,
2013-04-14 03:10:00,67.4,35.7,29.49,SSW,195,14.0,20.0,31,0.00,,,0.00,Wunderground v.1.15,2013-04-14 10:10:00,
2013-04-14 03:18:00,67.2,35.5,29.50,SW,218,14.0,20.0,31,0.00,,,0.00,Wunderground v.1.15,2013-04-14 10:18:00,
2013-04-14 03:24:00,67.2,35.5,29.50,South,186,12.0,16.0,31,0.00,,,0.00,Wunderground v.1.15,2013-04-14 10:24:00,
2013-04-14 03:30:00,67.2,34.7,29.50,SSW,196,13.0,13.0,30,0.00,,,0.00,Wunderground v.1.15,2013-04-14 10:30:00,
2013-04-14 03:36:00,67.3,35.6,29.50,SW,215,13.0,14.0,31,0.00,,,0.00,Wunderground v.1.15,2013-04-14 10:36:00,
2013-04-14 03:42:00,67.3,35.6,29.50,SW,229,13.0,15.0,31,0.00,,,0.00,Wunderground v.1.15,2013-04-14 10:42:00,
2013-04-14 03:48:00,67.2,36.3,29.50,SW,214,13.0,18.0,32,0.00,,,0.00,Wunderground v.1.15,2013-04-14 10:48:00,
2013-04-14 03:54:00,66.9,36.1,29.50,SSW,211,14.0,18.0,32,0.00,,,0.00,Wunderground v.1.15,2013-04-14 10:54:00,
2013-04-14 04:00:00,66.6,35.8,29.50,SW,219,15.0,16.0,32,0.00,,,0.00,Wunderground v.1.15,2013-04-14 11:00:00,
2013-04-14 04:06:00,66.6,35.8,29.50,SSW,209,14.0,17.0,32,0.00,,,0.00,Wunderground v.1.15,2013-04-14 11:06:00,
2013-04-14 04:12:00,66.3,36.3,29.50,SW,217,15.0,15.0,33,0.00,,,0.00,Wunderground v.1.15,2013-04-14 11:12:00,
2013-04-14 04:18:00,66.2,36.2,29.50,SW,218,14.0,15.0,33,0.00,,,0.00,Wunderground v.1.15,2013-04-14 11:18:00,
2013-04-14 04:24:00,66.1,36.1,29.50,SW,218,12.0,13.0,33,0.00,,,0.00,Wunderground v.1.15,2013-04-14 11:24:00,
2013-04-14 04:30:00,66.1,35.4,29.50,West,264,13.0,13.0,32,0.00,,,0.00,Wunderground v.1.15,2013-04-14 11:30:00,
2013-04-14 04:38:00,66.2,35.4,29.50,SW,230,12.0,17.0,32,0.00,,,0.00,Wunderground v.1.15,2013-04-14 11:38:00,
2013-04-14 04:44:00,66.2,35.4,29.50,SW,217,15.0,18.0,32,0.00,,,0.00,Wunderground v.1.15,2013-04-14 11:44:00,
2013-04-14 04:50:00,66.1,35.4,29.50,West,259,14.0,14.0,32,0.00,,,0.00,Wunderground v.1.15,2013-04-14 11:50:00,
2013-04-14 04:58:00,66.1,35.4,29.50,SSW,210,12.0,18.0,32,0.00,,,0.00,Wunderground v.1.15,2013-04-14 11:58:00,
2013-04-14 05:04:00,66.0,35.3,29.50,SSW,211,13.0,18.0,32,0.00,,,0.00,Wunderground v.1.15,2013-04-14 12:04:00,
2013-04-14 05:10:00,65.8,35.1,29.50,SW,233,13.0,15.0,32,0.00,,,0.00,Wunderground v.1.15,2013-04-14 12:10:00,
2013-04-14 05:16:00,65.8,35.1,29.50,SW,232,13.0,15.0,32,0.00,,,0.00,Wunderground v.1.15,2013-04-14 12:16:00,
2013-04-14 05:22:00,65.7,35.0,29.50,SW,230,12.0,17.0,32,0.00,,,0.00,Wunderground v.1.15,2013-04-14 12:22:00,
2013-04-14 05:28:00,65.6,34.9,29.50,SW,223,13.0,19.0,32,0.00,,,0.00,Wunderground v.1.15,2013-04-14 12:28:00,
2013-04-14 05:34:00,65.5,34.8,29.50,SSW,201,14.0,14.0,32,0.00,,,0.00,Wunderground v.1.15,2013-04-14 12:34:00,
2013-04-14 05:40:00,65.5,34.8,29.50,SSW,205,14.0,14.0,32,0.00,,,0.00,Wunderground v.1.15,2013-04-14 12:40:00,
2013-04-14 05:48:00,65.3,34.7,29.51,SW,229,14.0,17.0,32,0.00,,,0.00,Wunderground v.1.15,2013-04-14 12:48:00,
2013-04-14 05:54:00,65.2,34.6,29.51,SSW,212,14.0,17.0,32,0.00,,,0.00,Wunderground v.1.15,2013-04-14 12:54:00,
2013-04-14 06:00:00,65.2,34.6,29.51,SW,223,14.0,14.0,32,0.00,,,0.00,Wunderground v.1.15,2013-04-14 13:00:00,
2013-04-14 06:08:00,65.0,35.2,29.51,WSW,237,15.0,20.0,33,0.00,,,0.00,Wunderground v.1.15,2013-04-14 13:08:00,
2013-04-14 06:14:00,64.9,35.1,29.52,SW,236,16.0,18.0,33,0.00,,,0.00,Wunderground v.1.15,2013-04-14 13:14:00,
2013-04-14 06:20:00,64.9,35.1,29.52,SW,227,15.0,16.0,33,0.00,,,0.00,Wunderground v.1.15,2013-04-14 13:20:00,
2013-04-14 06:30:00,64.9,35.1,29.52,SW,221,16.0,19.0,33,0.00,,,0.00,Wunderground v.1.15,2013-04-14 13:30:00,
2013-04-14 06:38:00,65.0,35.2,29.52,SW,236,14.0,19.0,33,0.00,,,0.00,Wunderground v.1.15,2013-04-14 13:38:00,
2013-04-14 06:44:00,65.0,34.4,29.53,WSW,258,12.0,14.0,32,0.00,,,0.00,Wunderground v.1.15,2013-04-14 13:44:00,
2013-04-14 06:50:00,65.3,34.7,29.53,SW,223,11.0,14.0,32,0.00,,,0.00,Wunderground v.1.15,2013-04-14 13:50:00,
2013-04-14 06:58:00,65.5,34.8,29.53,WSW,246,14.0,17.0,32,0.00,,,0.00,Wunderground v.1.15,2013-04-14 13:58:00,
2013-04-14 07:04:00,65.4,34.8,29.53,SW,236,11.0,13.0,32,0.00,,,0.00,Wunderground v.1.15,2013-04-14 14:04:00,
2013-04-14 07:10:00,65.5,34.8,29.53,SSW,213,9.0,16.0,32,0.00,,,0.00,Wunderground v.1.15,2013-04-14 14:10:00,
2013-04-14 07:16:00,65.8,35.1,29.54,SW,222,12.0,17.0,32,0.00,,,0.00,Wunderground v.1.15,2013-04-14 14:16:00,
2013-04-14 07:22:00,66.3,35.5,29.54,SW,233,13.0,14.0,32,0.00,,,0.00,Wunderground v.1.15,2013-04-14 14:22:00,
2013-04-14 07:28:00,66.6,35.0,29.54,SW,216,11.0,14.0,31,0.00,,,0.00,Wunderground v.1.15,2013-04-14 14:28:00,
2013-04-14 07:34:00,67.2,35.5,29.54,SW,215,12.0,15.0,31,0.00,,,0.00,Wunderground v.1.15,2013-04-14 14:34:00,
2013-04-14 07:40:00,67.7,36.0,29.54,SW,232,14.0,14.0,31,0.00,,,0.00,Wunderground v.1.15,2013-04-14 14:40:00,
2013-04-14 07:48:00,68.4,35.7,29.54,SW,230,11.0,14.0,30,0.00,,,0.00,Wunderground v.1.15,2013-04-14 14:48:00,
2013-04-14 07:54:00,68.9,36.2,29.55,SSW,213,11.0,14.0,30,0.00,,,0.00,Wunderground v.1.15,2013-04-14 14:54:00,
2013-04-14 08:00:00,69.4,35.7,29.54,SW,227,14.0,15.0,29,0.00,,,0.00,Wunderground v.1.15,2013-04-14 15:00:00,
2013-04-14 08:06:00,70.0,36.3,29.54,SW,217,12.0,15.0,29,0.00,,,0.00,Wunderground v.1.15,2013-04-14 15:06:00,
2013-04-14 08:12:00,70.6,35.9,29.55,WSW,239,12.0,13.0,28,0.00,,,0.00,Wunderground v.1.15,2013-04-14 15:12:00,
2013-04-14 08:18:00,71.1,35.4,29.55,SW,232,12.0,13.0,27,0.00,,,0.00,Wunderground v.1.15,2013-04-14 15:18:00,
2013-04-14 08:24:00,71.6,36.8,29.55,SW,229,12.0,13.0,28,0.00,,,0.00,Wunderground v.1.15,2013-04-14 15:24:00,
2013-04-14 08:30:00,72.0,36.2,29.55,SW,234,11.0,11.0,27,0.00,,,0.00,Wunderground v.1.15,2013-04-14 15:30:00,
2013-04-14 08:36:00,72.4,35.6,29.55,SW,227,11.0,14.0,26,0.00,,,0.00,Wunderground v.1.15,2013-04-14 15:36:00,
2013-04-14 08:42:00,72.9,36.0,29.55,SW,232,11.0,12.0,26,0.00,,,0.00,Wunderground v.1.15,2013-04-14 15:42:00,
2013-04-14 08:48:00,73.5,35.5,29.55,WSW,242,8.0,12.0,25,0.00,,,0.00,Wunderground v.1.15,2013-04-14 15:48:00,
2013-04-14 08:54:00,74.0,34.9,29.55,SW,217,7.0,11.0,24,0.00,,,0.00,Wunderground v.1.15,2013-04-14 15:54:00,
2013-04-14 09:00:00,74.4,35.2,29.55,SW,232,7.0,7.0,24,0.00,,,0.00,Wunderground v.1.15,2013-04-14 16:00:00,
2013-04-14 09:06:00,75.0,34.7,29.55,West,261,5.0,7.0,23,0.00,,,0.00,Wunderground v.1.15,2013-04-14 16:06:00,
2013-04-14 09:12:00,75.7,35.3,29.55,West,272,3.0,7.0,23,0.00,,,0.00,Wunderground v.1.15,2013-04-14 16:12:00,
2013-04-14 09:18:00,76.3,34.6,29.56,West,261,5.0,7.0,22,0.00,,,0.00,Wunderground v.1.15,2013-04-14 16:18:00,
2013-04-14 09:24:00,76.5,34.8,29.56,NW,320,6.0,8.0,22,0.00,,,0.00,Wunderground v.1.15,2013-04-14 16:24:00,
2013-04-14 09:30:00,76.7,33.8,29.56,WNW,297,5.0,6.0,21,0.00,,,0.00,Wunderground v.1.15,2013-04-14 16:30:00,
2013-04-14 09:36:00,76.8,33.9,29.56,West,275,5.0,6.0,21,0.00,,,0.00,Wunderground v.1.15,2013-04-14 16:36:00,
2013-04-14 09:43:00,77.0,34.1,29.56,West,270,3.0,4.0,21,0.00,,,0.00,Wunderground v.1.15,2013-04-14 16:43:00,
2013-04-14 09:48:00,77.2,34.2,29.56,SW,229,3.0,7.0,21,0.00,,,0.00,Wunderground v.1.15,2013-04-14 16:48:00,
2013-04-14 09:54:00,78.1,35.0,29.56,West,262,4.0,5.0,21,0.00,,,0.00,Wunderground v.1.15,2013-04-14 16:54:00,
2013-04-14 10:00:00,78.7,35.5,29.56,SW,230,5.0,5.0,21,0.00,,,0.00,Wunderground v.1.15,2013-04-14 17:00:00,
2013-04-14 10:06:00,79.4,36.0,29.55,SW,222,7.0,12.0,21,0.00,,,0.00,Wunderground v.1.15,2013-04-14 17:06:00,
2013-04-14 10:12:00,79.5,36.1,29.55,SW,222,8.0,8.0,21,0.00,,,0.00,Wunderground v.1.15,2013-04-14 17:12:00,
2013-04-14 10:18:00,79.7,36.3,29.55,SSW,213,7.0,13.0,21,0.00,,,0.00,Wunderground v.1.15,2013-04-14 17:18:00,
2013-04-14 10:24:00,79.9,36.5,29.55,SW,218,8.0,10.0,21,0.00,,,0.00,Wunderground v.1.15,2013-04-14 17:24:00,
2013-04-14 10:30:00,80.4,35.6,29.55,South,191,7.0,7.0,20,0.00,,,0.00,Wunderground v.1.15,2013-04-14 17:30:00,
2013-04-14 10:36:00,80.9,36.1,29.55,SW,224,8.0,13.0,20,0.00,,,0.00,Wunderground v.1.15,2013-04-14 17:36:00,
2013-04-14 10:42:00,80.9,36.1,29.55,WSW,241,9.0,13.0,20,0.00,,,0.00,Wunderground v.1.15,2013-04-14 17:42:00,
2013-04-14 10:48:00,80.9,36.1,29.55,SSW,192,10.0,14.0,20,0.00,,,0.00,Wunderground v.1.15,2013-04-14 17:48:00,
2013-04-14 10:54:00,80.7,35.9,29.55,SW,227,10.0,12.0,20,0.00,,,0.00,Wunderground v.1.15,2013-04-14 17:54:00,
2013-04-14 11:00:00,80.9,36.1,29.54,SW,216,8.0,10.0,20,0.00,,,0.00,Wunderground v.1.15,2013-04-14 18:00:00,
2013-04-14 11:06:00,81.1,36.2,29.54,South,178,10.0,16.0,20,0.00,,,0.00,Wunderground v.1.15,2013-04-14 18:06:00,
2013-04-14 11:12:00,81.5,36.5,29.53,SW,221,9.0,11.0,20,0.00,,,0.00,Wunderground v.1.15,2013-04-14 18:12:00,
2013-04-14 11:18:00,82.0,37.0,29.53,SSE,168,8.0,11.0,20,0.00,,,0.00,Wunderground v.1.15,2013-04-14 18:18:00,
2013-04-14 11:24:00,82.3,37.2,29.53,SW,223,8.0,12.0,20,0.00,,,0.00,Wunderground v.1.15,2013-04-14 18:24:00,
2013-04-14 11:30:00,82.2,37.1,29.53,SW,233,7.0,7.0,20,0.00,,,0.00,Wunderground v.1.15,2013-04-14 18:30:00,
2013-04-14 11:36:00,82.7,37.5,29.52,SW,215,7.0,13.0,20,0.00,,,0.00,Wunderground v.1.15,2013-04-14 18:36:00,
2013-04-14 11:42:00,82.9,37.7,29.52,SW,224,8.0,8.0,20,0.00,,,0.00,Wunderground v.1.15,2013-04-14 18:42:00,
2013-04-14 11:48:00,82.9,38.9,29.52,SSW,203,8.0,16.0,21,0.00,,,0.00,Wunderground v.1.15,2013-04-14 18:48:00,
2013-04-14 11:54:00,83.6,38.3,29.52,SSW,200,10.0,13.0,20,0.00,,,0.00,Wunderground v.1.15,2013-04-14 18:54:00,
2013-04-14 12:00:00,83.8,39.7,29.52,SSW,213,10.0,17.0,21,0.00,,,0.00,Wunderground v.1.15,2013-04-14 19:00:00,
2013-04-14 12:08:00,84.2,40.0,29.51,SW,223,9.0,17.0,21,0.00,,,0.00,Wunderground v.1.15,2013-04-14 19:08:00,
2013-04-14 12:14:00,84.2,40.0,29.51,WNW,290,9.0,10.0,21,0.00,,,0.00,Wunderground v.1.15,2013-04-14 19:14:00,
2013-04-14 12:20:00,84.5,40.3,29.50,SW,227,8.0,16.0,21,0.00,,,0.00,Wunderground v.1.15,2013-04-14 19:20:00,
2013-04-14 12:26:00,84.2,40.0,29.50,SW,236,10.0,16.0,21,0.00,,,0.00,Wunderground v.1.15,2013-04-14 19:26:00,
2013-04-14 12:32:00,84.7,40.4,29.49,SSW,213,10.0,11.0,21,0.00,,,0.00,Wunderground v.1.15,2013-04-14 19:32:00,
2013-04-14 12:38:00,85.4,41.0,29.49,SW,214,10.0,11.0,21,0.00,,,0.00,Wunderground v.1.15,2013-04-14 19:38:00,
2013-04-14 12:44:00,85.6,41.2,29.48,SW,225,10.0,12.0,21,0.00,,,0.00,Wunderground v.1.15,2013-04-14 19:44:00,
2013-04-14 12:50:00,85.7,40.0,29.48,SW,229,10.0,11.0,20,0.00,,,0.00,Wunderground v.1.15,2013-04-14 19:50:00,
2013-04-14 12:56:00,85.8,40.1,29.47,South,179,10.0,11.0,20,0.00,,,0.00,Wunderground v.1.15,2013-04-14 19:56:00,
2013-04-14 13:02:00,85.2,38.3,29.47,SSE,162,8.0,10.0,19,0.00,,,0.00,Wunderground v.1.15,2013-04-14 20:02:00,
2013-04-14 13:08:00,86.0,38.9,29.47,West,265,7.0,13.0,19,0.00,,,0.00,Wunderground v.1.15,2013-04-14 20:08:00,
2013-04-14 13:14:00,87.1,38.4,29.47,WNW,294,7.0,11.0,18,0.00,,,0.00,Wunderground v.1.15,2013-04-14 20:14:00,
2013-04-14 13:20:00,87.8,39.0,29.46,WSW,252,5.0,5.0,18,0.00,,,0.00,Wunderground v.1.15,2013-04-14 20:20:00,
2013-04-14 13:26:00,88.6,38.2,29.46,West,259,6.0,6.0,17,0.00,,,0.00,Wunderground v.1.15,2013-04-14 20:26:00,
2013-04-14 13:32:00,88.6,38.2,29.46,West,263,7.0,9.0,17,0.00,,,0.00,Wunderground v.1.15,2013-04-14 20:32:00,
2013-04-14 13:38:00,89.1,37.1,29.46,West,272,8.0,12.0,16,0.00,,,0.00,Wunderground v.1.15,2013-04-14 20:38:00,
2013-04-14 13:44:00,88.9,36.9,29.46,West,263,7.0,9.0,16,0.00,,,0.00,Wunderground v.1.15,2013-04-14 20:44:00,
2013-04-14 13:50:00,88.8,38.4,29.46,West,261,7.0,10.0,17,0.00,,,0.00,Wunderground v.1.15,2013-04-14 20:50:00,
2013-04-14 13:56:00,87.9,37.6,29.45,West,267,7.0,10.0,17,0.00,,,0.00,Wunderground v.1.15,2013-04-14 20:56:00,
2013-04-14 14:02:00,89.1,38.6,29.45,NW,317,6.0,6.0,17,0.00,,,0.00,Wunderground v.1.15,2013-04-14 21:02:00,
2013-04-14 14:08:00,89.5,38.9,29.45,NNW,335,5.0,11.0,17,0.00,,,0.00,Wunderground v.1.15,2013-04-14 21:08:00,
2013-04-14 14:14:00,90.0,39.3,29.45,NW,323,6.0,8.0,17,0.00,,,0.00,Wunderground v.1.15,2013-04-14 21:14:00,
2013-04-14 14:20:00,90.6,39.8,29.44,SSE,167,5.0,10.0,17,0.00,,,0.00,Wunderground v.1.15,2013-04-14 21:20:00,
2013-04-14 14:26:00,90.4,39.6,29.44,WNW,298,6.0,10.0,17,0.00,,,0.00,Wunderground v.1.15,2013-04-14 21:26:00,
2013-04-14 14:32:00,90.4,39.6,29.44,West,267,8.0,12.0,17,0.00,,,0.00,Wunderground v.1.15,2013-04-14 21:32:00,
2013-04-14 14:38:00,90.3,38.0,29.43,SW,229,13.0,21.0,16,0.00,,,0.00,Wunderground v.1.15,2013-04-14 21:38:00,
2013-04-14 14:44:00,90.2,37.9,29.43,WSW,248,16.0,21.0,16,0.00,,,0.00,Wunderground v.1.15,2013-04-14 21:44:00,
2013-04-14 14:50:00,90.1,37.9,29.43,WSW,252,17.0,20.0,16,0.00,,,0.00,Wunderground v.1.15,2013-04-14 21:50:00,
2013-04-14 14:58:00,89.5,37.4,29.41,WSW,245,18.0,23.0,16,0.00,,,0.00,Wunderground v.1.15,2013-04-14 21:58:00,
2013-04-14 15:04:00,89.5,35.7,29.41,West,259,21.0,31.0,15,0.00,,,0.00,Wunderground v.1.15,2013-04-14 22:04:00,
2013-04-14 15:10:00,89.2,37.1,29.40,WSW,241,21.0,25.0,16,0.00,,,0.00,Wunderground v.1.15,2013-04-14 22:10:00,
2013-04-14 15:16:00,88.7,36.7,29.41,WSW,252,21.0,26.0,16,0.00,,,0.00,Wunderground v.1.15,2013-04-14 22:16:00,
2013-04-14 15:22:00,87.7,37.5,29.40,West,277,22.0,28.0,17,0.00,,,0.00,Wunderground v.1.15,2013-04-14 22:22:00,
2013-04-14 15:28:00,86.4,37.9,29.40,West,272,25.0,28.0,18,0.00,,,0.00,Wunderground v.1.15,2013-04-14 22:28:00,
2013-04-14 15:34:00,85.9,37.5,29.39,WSW,253,26.0,33.0,18,0.00,,,0.00,Wunderground v.1.15,2013-04-14 22:34:00,
2013-04-14 15:40:00,85.3,37.0,29.39,WSW,241,25.0,25.0,18,0.00,,,0.00,Wunderground v.1.15,2013-04-14 22:40:00,
2013-04-14 15:46:00,84.6,36.4,29.39,WSW,248,24.0,29.0,18,0.00,,,0.00,Wunderground v.1.15,2013-04-14 22:46:00,
2013-04-14 15:52:00,84.0,35.9,29.38,SW,232,24.0,24.0,18,0.00,,,0.00,Wunderground v.1.15,2013-04-14 22:52:00,
2013-04-14 15:58:00,83.4,36.8,29.38,WSW,246,26.0,33.0,19,0.00,,,0.00,Wunderground v.1.15,2013-04-14 22:58:00,
2013-04-14 16:04:00,83.0,36.5,29.38,SW,229,27.0,28.0,19,0.00,,,0.00,Wunderground v.1.15,2013-04-14 23:04:00,
2013-04-14 16:10:00,82.5,36.1,29.38,SW,227,28.0,33.0,19,0.00,,,0.00,Wunderground v.1.15,2013-04-14 23:10:00,
2013-04-14 16:16:00,81.9,36.9,29.38,SW,235,28.0,33.0,20,0.00,,,0.00,Wunderground v.1.15,2013-04-14 23:16:00,
2013-04-14 16:22:00,81.7,36.7,29.38,SW,223,27.0,28.0,20,0.00,,,0.00,Wunderground v.1.15,2013-04-14 23:22:00,
2013-04-14 16:28:00,81.5,36.5,29.38,WSW,249,28.0,33.0,20,0.00,,,0.00,Wunderground v.1.15,2013-04-14 23:28:00,
2013-04-14 16:34:00,81.7,35.4,29.38,WSW,238,27.0,29.0,19,0.00,,,0.00,Wunderground v.1.15,2013-04-14 23:34:00,
2013-04-14 16:40:00,81.7,35.4,29.38,WSW,244,25.0,25.0,19,0.00,,,0.00,Wunderground v.1.15,2013-04-14 23:40:00,
2013-04-14 16:46:00,82.2,35.8,29.37,SW,236,21.0,25.0,19,0.00,,,0.00,Wunderground v.1.15,2013-04-14 23:46:00,
2013-04-14 16:52:00,82.3,35.9,29.36,WSW,240,21.0,32.0,19,0.00,,,0.00,Wunderground v.1.15,2013-04-14 23:52:00,
2013-04-14 16:58:00,82.1,35.7,29.36,West,259,22.0,38.0,19,0.00,,,0.00,Wunderground v.1.15,2013-04-14 23:58:00,
2013-04-14 17:04:00,81.5,35.2,29.36,WSW,252,26.0,38.0,19,0.00,,,0.00,Wunderground v.1.15,2013-04-15 00:04:00,
2013-04-14 17:10:00,81.6,35.3,29.36,West,263,24.0,26.0,19,0.00,,,0.00,Wunderground v.1.15,2013-04-15 00:10:00,
2013-04-14 17:18:00,80.8,36.0,29.36,WSW,256,25.0,33.0,20,0.00,,,0.00,Wunderground v.1.15,2013-04-15 00:18:00,
2013-04-14 17:24:00,80.2,36.7,29.36,West,261,24.0,25.0,21,0.00,,,0.00,Wunderground v.1.15,2013-04-15 00:24:00,
2013-04-14 17:30:00,79.5,34.9,29.36,WSW,241,25.0,25.0,20,0.00,,,0.00,Wunderground v.1.15,2013-04-15 00:30:00,
2013-04-14 17:36:00,79.1,35.8,29.36,West,264,24.0,25.0,21,0.00,,,0.00,Wunderground v.1.15,2013-04-15 00:36:00,
2013-04-14 17:42:00,78.1,36.1,29.35,West,273,26.0,33.0,22,0.00,,,0.00,Wunderground v.1.15,2013-04-15 00:42:00,
2013-04-14 17:48:00,77.1,36.4,29.35,WSW,256,29.0,37.0,23,0.00,,,0.00,Wunderground v.1.15,2013-04-15 00:48:00,
2013-04-14 17:54:00,76.0,36.6,29.35,WSW,248,28.0,37.0,24,0.00,,,0.00,Wunderground v.1.15,2013-04-15 00:54:00,
2013-04-14 18:00:00,75.6,36.2,29.36,West,260,25.0,25.0,24,0.00,,,0.00,Wunderground v.1.15,2013-04-15 01:00:00,
2013-04-14 18:06:00,75.4,36.1,29.35,WSW,244,24.0,33.0,24,0.00,,,0.00,Wunderground v.1.15,2013-04-15 01:06:00,
2013-04-14 18:12:00,74.9,36.7,29.36,WSW,243,25.0,31.0,25,0.00,,,0.00,Wunderground v.1.15,2013-04-15 01:12:00,
2013-04-14 18:18:00,74.4,35.2,29.36,West,268,25.0,31.0,24,0.00,,,0.00,Wunderground v.1.15,2013-04-15 01:18:00,
2013-04-14 18:24:00,73.9,34.8,29.36,WSW,246,27.0,34.0,24,0.00,,,0.00,Wunderground v.1.15,2013-04-15 01:24:00,
2013-04-14 18:30:00,73.5,34.5,29.35,West,259,26.0,26.0,24,0.00,,,0.00,Wunderground v.1.15,2013-04-15 01:30:00,
2013-04-14 18:38:00,73.2,34.2,29.35,WSW,249,26.0,35.0,24,0.00,,,0.00,Wunderground v.1.15,2013-04-15 01:38:00,
2013-04-14 18:44:00,73.0,34.1,29.36,West,269,23.0,25.0,24,0.00,,,0.00,Wunderground v.1.15,2013-04-15 01:44:00,
2013-04-14 18:50:00,72.9,35.0,29.36,WSW,252,25.0,25.0,25,0.00,,,0.00,Wunderground v.1.15,2013-04-15 01:50:00,
2013-04-14 18:56:00,72.3,35.5,29.37,WSW,244,25.0,25.0,26,0.00,,,0.00,Wunderground v.1.15,2013-04-15 01:56:00,
2013-04-14 19:02:00,71.5,33.8,29.38,WSW,248,20.0,22.0,25,0.00,,,0.00,Wunderground v.1.15,2013-04-15 02:02:00,
2013-04-14 19:08:00,71.1,33.5,29.39,WSW,251,18.0,27.0,25,0.00,,,0.00,Wunderground v.1.15,2013-04-15 02:08:00,
2013-04-14 19:14:00,70.5,33.9,29.40,SW,232,19.0,32.0,26,0.00,,,0.00,Wunderground v.1.15,2013-04-15 02:14:00,
2013-04-14 19:20:00,70.0,34.5,29.41,WSW,240,18.0,18.0,27,0.00,,,0.00,Wunderground v.1.15,2013-04-15 02:20:00,
2013-04-14 19:26:00,69.5,34.0,29.41,SW,217,15.0,23.0,27,0.00,,,0.00,Wunderground v.1.15,2013-04-15 02:26:00,
2013-04-14 19:32:00,68.9,34.4,29.41,WSW,252,14.0,15.0,28,0.00,,,0.00,Wunderground v.1.15,2013-04-15 02:32:00,
2013-04-14 19:38:00,68.6,34.2,29.41,WNW,286,14.0,16.0,28,0.00,,,0.00,Wunderground v.1.15,2013-04-15 02:38:00,
2013-04-14 19:44:00,68.4,34.9,29.40,WSW,241,12.0,21.0,29,0.00,,,0.00,Wunderground v.1.15,2013-04-15 02:44:00,
2013-04-14 19:50:00,68.3,33.9,29.41,West,263,13.0,21.0,28,0.00,,,0.00,Wunderground v.1.15,2013-04-15 02:50:00,
2013-04-14 19:56:00,68.3,33.0,29.41,West,270,16.0,24.0,27,0.00,,,0.00,Wunderground v.1.15,2013-04-15 02:56:00,
2013-04-14 20:02:00,68.5,33.2,29.41,WSW,257,17.0,20.0,27,0.00,,,0.00,Wunderground v.1.15,2013-04-15 03:02:00,
2013-04-14 20:08:00,68.5,35.0,29.42,WSW,238,16.0,20.0,29,0.00,,,0.00,Wunderground v.1.15,2013-04-15 03:08:00,
2013-04-14 20:14:00,68.1,34.6,29.41,WSW,252,16.0,20.0,29,0.00,,,0.00,Wunderground v.1.15,2013-04-15 03:14:00,
2013-04-14 20:20:00,67.9,34.4,29.42,West,261,16.0,16.0,29,0.00,,,0.00,Wunderground v.1.15,2013-04-15 03:20:00,
2013-04-14 20:26:00,67.7,33.4,29.42,WSW,254,15.0,19.0,28,0.00,,,0.00,Wunderground v.1.15,2013-04-15 03:26:00,
2013-04-14 20:32:00,67.7,34.3,29.42,WSW,253,16.0,18.0,29,0.00,,,0.00,Wunderground v.1.15,2013-04-15 03:32:00,
2013-04-14 20:38:00,67.6,34.2,29.43,WSW,240,16.0,18.0,29,0.00,,,0.00,Wunderground v.1.15,2013-04-15 03:38:00,
2013-04-14 20:44:00,67.5,32.3,29.43,WNW,292,12.0,20.0,27,0.00,,,0.00,Wunderground v.1.15,2013-04-15 03:44:00,
2013-04-14 20:50:00,67.6,32.4,29.44,NW,305,9.0,9.0,27,0.00,,,0.00,Wunderground v.1.15,2013-04-15 03:50:00,
2013-04-14 20:56:00,67.7,30.6,29.44,WNW,303,6.0,13.0,25,0.00,,,0.00,Wunderground v.1.15,2013-04-15 03:56:00,
2013-04-14 21:00:00,68.0,30.8,29.44,West,265,8.0,19.0,25,0.00,,,0.00,Wunderground v.1.15,2013-04-15 04:00:00,
2013-04-14 21:02:00,68.1,30.9,29.45,WNW,287,9.0,20.0,25,0.00,,,0.00,Wunderground v.1.15,2013-04-15 04:02:00,
2013-04-14 21:04:00,68.3,31.1,29.45,WNW,296,11.0,20.0,25,0.00,,,0.00,Wunderground v.1.15,2013-04-15 04:04:00,
2013-04-14 21:10:00,68.6,30.3,29.44,WNW,301,15.0,15.0,24,0.00,,,0.00,Wunderground v.1.15,2013-04-15 04:10:00,
2013-04-14 21:14:00,68.8,30.5,29.45,West,270,16.0,19.0,24,0.00,,,0.00,Wunderground v.1.15,2013-04-15 04:14:00,
2013-04-14 21:20:00,69.0,32.7,29.45,WSW,256,18.0,20.0,26,0.00,,,0.00,Wunderground v.1.15,2013-04-15 04:20:00,
2013-04-14 21:26:00,68.6,34.2,29.45,WSW,241,16.0,20.0,28,0.00,,,0.00,Wunderground v.1.15,2013-04-15 04:26:00,
2013-04-14 21:32:00,68.1,32.8,29.47,West,280,12.0,14.0,27,0.00,,,0.00,Wunderground v.1.15,2013-04-15 04:32:00,
2013-04-14 21:38:00,67.6,34.2,29.46,SW,221,12.0,24.0,29,0.00,,,0.00,Wunderground v.1.15,2013-04-15 04:38:00,
2013-04-14 21:44:00,67.0,33.7,29.46,WSW,246,15.0,20.0,29,0.00,,,0.00,Wunderground v.1.15,2013-04-15 04:44:00,
2013-04-14 21:50:00,66.9,32.7,29.46,WSW,240,21.0,23.0,28,0.00,,,0.00,Wunderground v.1.15,2013-04-15 04:50:00,
2013-04-14 21:58:00,67.0,31.9,29.45,SW,226,26.0,36.0,27,0.00,,,0.00,Wunderground v.1.15,2013-04-15 04:58:00,
2013-04-14 22:04:00,67.0,32.8,29.45,SW,232,28.0,30.0,28,0.00,,,0.00,Wunderground v.1.15,2013-04-15 05:04:00,
2013-04-14 22:10:00,66.8,32.6,29.45,SW,229,30.0,30.0,28,0.00,,,0.00,Wunderground v.1.15,2013-04-15 05:10:00,
2013-04-14 22:18:00,66.8,31.7,29.44,SW,219,31.0,38.0,27,0.00,,,0.00,Wunderground v.1.15,2013-04-15 05:18:00,
2013-04-14 22:24:00,66.5,32.4,29.43,SW,221,34.0,38.0,28,0.00,,,0.00,Wunderground v.1.15,2013-04-15 05:24:00,
2013-04-14 22:30:00,66.3,31.3,29.42,SW,222,36.0,36.0,27,0.00,,,0.00,Wunderground v.1.15,2013-04-15 05:30:00,
2013-04-14 22:38:00,66.3,30.4,29.43,SW,236,37.0,38.0,26,0.00,,,0.00,Wunderground v.1.15,2013-04-15 05:38:00,
2013-04-14 22:44:00,66.3,30.4,29.43,SW,223,35.0,36.0,26,0.00,,,0.00,Wunderground v.1.15,2013-04-15 05:44:00,
2013-04-14 22:50:00,66.1,29.2,29.44,SW,227,31.0,37.0,25,0.00,,,0.00,Wunderground v.1.15,2013-04-15 05:50:00,
2013-04-14 22:56:00,66.1,29.2,29.43,SW,235,30.0,37.0,25,0.00,,,0.00,Wunderground v.1.15,2013-04-15 05:56:00,
2013-04-14 23:02:00,66.0,30.1,29.44,WSW,250,31.0,37.0,26,0.00,,,0.00,Wunderground v.1.15,2013-04-15 06:02:00,
2013-04-14 23:08:00,65.7,29.8,29.44,WSW,243,30.0,37.0,26,0.00,,,0.00,Wunderground v.1.15,2013-04-15 06:08:00,
2013-04-14 23:14:00,65.6,28.8,29.44,SW,218,30.0,35.0,25,0.00,,,0.00,Wunderground v.1.15,2013-04-15 06:14:00,
2013-04-14 23:20:00,65.8,29.0,29.43,WSW,240,31.0,34.0,25,0.00,,,0.00,Wunderground v.1.15,2013-04-15 06:20:00,
2013-04-14 23:26:00,65.8,29.0,29.41,SW,236,33.0,37.0,25,0.00,,,0.00,Wunderground v.1.15,2013-04-15 06:26:00,
2013-04-14 23:32:00,65.6,29.8,29.43,SW,236,35.0,38.0,26,0.00,,,0.00,Wunderground v.1.15,2013-04-15 06:32:00,
2013-04-14 23:38:00,65.1,29.3,29.42,WSW,238,34.0,38.0,26,0.00,,,0.00,Wunderground v.1.15,2013-04-15 06:38:00,
2013-04-14 23:44:00,64.9,29.2,29.43,SW,230,34.0,36.0,26,0.00,,,0.00,Wunderground v.1.15,2013-04-15 06:44:00,
2013-04-14 23:50:00,64.7,29.0,29.41,SW,225,36.0,39.0,26,0.00,,,0.00,Wunderground v.1.15,2013-04-15 06:50:00,
2013-04-14 23:56:00,64.7,29.0,29.40,SW,220,37.0,44.0,26,0.00,,,0.00,Wunderground v.1.15,2013-04-15 06:56:00,